{"data":{"norad_id":58631,"intl_designator":"2023-203P","name":"STARLINK-31064","alt_names":[],"object_type":"PAYLOAD","status":"ACTIVE","operator":null,"country":"US","launch_date":"2023-12-23","launch_site_code":"AFETR","launch_vehicle":null,"mission":null,"orbit_class":"UNKNOWN","rcs_meters":null,"size_class":null,"mass_kg":null,"dimensions":null,"purposes":["comms"],"wikipedia_slug":null,"has_3d_model":false,"image_url":null,"decayed_at":null,"tle_current":{"epoch":"2026-09-20T03:00:40.372992Z","epoch_age_seconds":182194,"freshness":"STALE","line1":"1 58631U 23203P   26263.12546728  .00000499  00000+0  27670-4 0  9994","line2":"2 58631  43.0031  52.8166 0000931 271.8250  88.2495 15.27578759154420","mean_motion":15.27578759,"eccentricity":9.31e-5,"inclination_deg":43.0031,"raan_deg":52.8166,"arg_perigee_deg":271.825,"mean_anomaly_deg":88.2495,"bstar":2.767e-5,"rev_number":15442,"period_min":94.266825295651,"perigee_km":482.41403527112,"apogee_km":483.69158881412,"semimajor_km":6861.1898120426,"source":"CELESTRAK","updated_at":"2026-09-21T09:00:33.939378Z"}}}